User: anonymous   Login
Location: Azul
(36.7830°S, 59.8500°W)
Time: 07:55:47
(UTC-03:00)
Language:

XW-2D - Orbit

View from above orbital plane
View from above orbital plane
View from above satellite
View from above satellite

Ground track
Ground track

The orbit data is extracted from the following two-line orbital elements,

1 40907U 15049J   22333.12199936  .00006249  00000-0  27657-3 0  9993
2 40907  97.4944 335.5998 0013468 131.7910 296.6322 15.21946015397996
Epoch (UTC): 29 November 2022 02:55:40
Eccentricity: 0.0013468
inclination: 97.4944°
perigee height: 491 km
apogee height: 509 km
right ascension of ascending node: 335.5998°
argument of perigee: 131.7910°
revolutions per day: 15.21946015
mean anomaly at epoch: 296.6322°
orbit number at epoch: 39799

The dashed part of the orbit path shows where the satellite is in the earth's shadow,  

DLR